Regional Weather Roundup
Issued by NWS Wakefield, VA

Home | Current Version | Previous Version | Text Only | Print | Product List | Glossary Off
Versions: 1 2 3 4 5 6 7 8 9 10 11 12 13 14 15 16 17 18 19 20 21 22 23 24 25 26 27 28 29 30 31 32 33 34 35 36 37 38 39 40 41 42 43 44 45 46 47 48 49 50

000
ASUS41 KAKQ 211515
RWRAKQ

REGIONAL WEATHER ROUNDUP
NATIONAL WEATHER SERVICE WAKEFIELD VA
1100 AM EDT MON AUG 21 2017

Note: "fair" indicates few or no clouds below 12,000 feet with no
significant weather and/or obstructions to visibility. * = Denotes
station may not report precipitation (e.g., rain,snow,etc.),
thunder or fog.

VAZ042-051-052>054-056-211600-
NORTHERN VIRGINIA

CITY           SKY/WX    TMP DP  RH WIND       PRES   REMARKS
WASH NATIONAL  MOSUNNY   82  76  81 S12       30.20S
DULLES         MOSUNNY   82  75  79 SW7       30.20S
FORT BELVOIR   MOSUNNY   81  73  78 S5        30.20R
QUANTICO       PTSUNNY   80  77  90 S8        30.21S
FREDERICKSBRG* SUNNY     83  75  78 SE3       30.19S
STAFFORD*      SUNNY     83  78  84 CALM      30.24S
WARRENTON      SUNNY     85  71  63 SE5       30.20S
CULPEPER*      SUNNY     85  75  72 S5        30.20F
MANASSAS*      SUNNY     83  75  77 S5        30.20S
LEESBURG*      SUNNY     82  75  78 S3        30.21S
WINCHESTER     SUNNY     81  70  69 S3        30.20S
FRONT ROYAL*   SUNNY     82  72  69 SE3       30.19S
LURAY*         SUNNY     84  72  65 SW6       30.21S
$$

VAZ048-049-060>072-079>083-211600-
CENTRAL AND SOUTH CENTRAL VIRGINIA

CITY           SKY/WX    TMP DP  RH WIND       PRES   REMARKS
RICHMOND       MOSUNNY   83  75  77 S7        30.21S
CHESTERFIELD*  FAIR      84  75  74 CALM      30.22S
PETERSBURG*    SUNNY     82  74  77 S3        30.22S
HANOVER        SUNNY     85  74  69 VRB3      30.22R
TAPPAHANNOCK*  SUNNY     86  73  65 S3        30.22R
QUINTON*       FAIR      83  76  81 S5        30.21S
CHARLOTTSVILLE SUNNY     84  74  71 CALM      30.21S
GORDONSVILLE*  SUNNY     84  76  75 S5        30.20S
ORANGE*        SUNNY     86  73  66 CALM      30.20F
LOUISA*        SUNNY     84  73  70 S3        30.21S
BUMPASS*       FAIR      84  77  79 CALM      30.21R
FARMVILLE*     SUNNY     87  69  55 SW5       30.20S
CREWE*         FAIR      87  70  58 CALM      30.22R
FORT PICKETT*  FAIR     N/A N/A N/A S3        30.23R
CHASE CITY*    FAIR      87  76  70 SE5       30.23R HX  96
CLARKSVILLE*   FAIR      86  77  74 CALM      30.22S HX  97
SOUTH HILL*    SUNNY     85  75  74 SW3       30.28S
LAWRENCEVILLE* FAIR      84  74  72 S3        30.23R
EMPORIA*       SUNNY     82  73  74 SE5       30.24R
$$

VAZ088>098-211600-
SOUTHEAST VIRGINIA

CITY           SKY/WX    TMP DP  RH WIND       PRES   REMARKS
NORFOLK        SUNNY     86  71  60 VRB3      30.22R
VIRGINIA BEACH MOSUNNY   84  70  62 SE10      30.22R
NORFOLK NAVAL  MOSUNNY   87  69  54 VRB6      30.24R
WEST POINT*    SUNNY     85  75  72 SE5       30.23R
SALUDA*        PTSUNNY   84  78  82 SE6       30.21S HX  95
NEWPORT NEWS   PTSUNNY   85  76  74 VRB5      30.22R
LANGLEY AFB    MOSUNNY   85  75  70 SE5       30.22R
FORT EUSTIS    MOSUNNY   87  77  71 S6        30.20R HX  99
WILLIAMSBURG*  SUNNY     88  79  74 CALM      30.23R HX 102
HR EXEC AP*    FAIR      82  73  74 CALM      30.20R
FRANKLIN*      MOSUNNY   83  74  73 CALM      30.23S
US460-WAKEFLD  SUNNY     84  76  76 S3        30.22S
$$

VAZ020-022-025-037-045-211600-
WEST CENTRAL AND SOUTHWEST VIRGINIA

CITY           SKY/WX    TMP DP  RH WIND       PRES   REMARKS
STAUNTON*      SUNNY     81  71  69 S5        30.25S
WAYNESBORO*    SUNNY     82  72  71 SW3       30.25S
HOT SPRINGS VA SUNNY     73  63  68 CALM      30.39S
LYNCHBURG      SUNNY     83  71  67 S6        30.24S
DANVILLE       SUNNY     84  75  74 VRB3      30.22S
SOUTH BOSTON*  FAIR      85  76  73 S3        30.22S
MARTINSVILLE   SUNNY     83  71  66 CALM      30.26F
ROANOKE        SUNNY     85  68  56 N3        30.26F
BLACKSBURG     SUNNY     80  69  70 W3        30.34S
DUBLIN*        SUNNY     82  69  66 W3        30.32S
MARION*        SUNNY     81  40  23 W6        30.36R
HILLSVILLE*    SUNNY     78  63  60 CALM      30.34R
RICHLANDS*     FAIR      78  63  59 W5        30.34S
WISE*          SUNNY     79  63  57 W5        30.35R
ABINGDON*      SUNNY     83  68  62 CALM      30.31S
$$

MDZ021>025-VAZ099-100-211600-
SOUTHERN MARYLAND AND THE DELMARVA PENINSULA

CITY           SKY/WX    TMP DP  RH WIND       PRES   REMARKS
PATUXENT RIVER PTSUNNY   84  77  79 SE7       30.20S
BAY BRIDGE APT MOSUNNY   86  73  66 S10       30.21R
LEONARDTOWN    MOSUNNY   82  73  74 SE7       30.23R
DOVER          PTSUNNY   81  66  61 SE6       30.20S
GEORGETOWN     PTSUNNY   83  65  54 S6        30.23R
EASTON         NOT AVBL
CAMBRIDGE      MOSUNNY   81  72  74 S7        30.21S
SALISBURY      PTSUNNY   83  68  60 S6        30.22S
OCEAN CITY     SUNNY     80  75  84 SW8       30.23S
WALLOPS ISLAND SUNNY     82  74  76 SE8       30.23R
ACCOMACK*      MOSUNNY   83  74  75 SE7       30.22S
$$

NCZ012>017-030>032-211600-
NORTH CENTRAL AND EASTERN NORTH CAROLINA

CITY           SKY/WX    TMP DP  RH WIND       PRES   REMARKS
ROANOKE RAPIDS FAIR      82  73  74 SE3       30.23S
RALEIGH        PTSUNNY   88  72  58 SE3       30.24R
ELIZABETH CITY MOSUNNY   84  76  76 VRB6      30.23S
AHOSKIE*         N/A     79  75  87 CALM      30.23S
EDENTON*       PTSUNNY   85  77  76 CALM      30.24R HX  95
CURRITUCK*     MOSUNNY   83  74  73 CALM      30.24R
KILL DEVIL HLS MOSUNNY   82  76  81 CALM      30.22S
MANTEO         CLOUDY    82  75  80 SE8       30.24R
CAPE HATTERAS  MOSUNNY   88  76  67 E10       30.22R HX  99
TARBORO*       NOT AVBL
GOLDSBORO      MOSUNNY   84  81  89 VRB3      30.22R HX  98
WASHINGTON     SUNNY     82  74  76 E5        30.24R
GREENVILLE     PTSUNNY   81  75  83 E3        30.24S
NEW BERN       PTSUNNY   84  77  79 E5        30.23R
WILMINGTON     CLOUDY    84  76  76 E10       30.21R
$$

VAZ048-211600-
ELSEWHERE

CITY           SKY/WX    TMP DP  RH WIND       PRES   REMARKS
HARRISBURG PA  PTSUNNY   79  70  74 VRB3      30.19S
BALTIMORE      MOSUNNY   84  73  69 S7        30.20R
ANNAPOLIS      MOSUNNY   83  78  85 S9        30.20R
ANDREWS AFB    MOSUNNY   83  74  75 S7        30.20R
PHILADELPHIA   PTSUNNY   82  63  52 S6        30.22R
HENDERSON NC   SUNNY     83  69  63 SE7       30.24S
GREENSBORO     MOSUNNY   86  73  65 SE3       30.23S
ROCKY MOUNT    SUNNY     85  74  69 CALM      30.23R
$$

VAZ100-211600-
MARINE

STATION/POSITION TIME  TEMP    WIND        PRES    WAVE   SWELL
                       AIR SEA DIR/SP/G            HT/PER HT/PER
                 (UTC) (F)     (DEG/KT/KT) (MB)    (FT/S) (FT/S)
BRANDYWINE LGT   1436   76     170/  9/ 10 1023.8R
CAPE MAY NJ      1436   78 77  170/  8/ 10 1022.8R
LEWES DE         1436   79 78  140/  7/ 10 1023.1R
15NM E FENWICK I 1450   77 79  140/  8/  8 1023.9R   1/ 7   2/ 7
OCEAN-CITY-INLET 1436   78 78  200/  6/  8 1023.9S
WACHAPREAGUE VA  1436   80 82  150/  6/  7 1023.5R
THOMAS POINT MD  1500   79 81  170/ 11/ 12   N/A
GOOSES REEF MD   1500   81 81  200/ 12/ 14 1023.5    1/ 2
COVE POINT MD    1436   80     180/ 11/ 12 1023.5R
SOLOMONS ISLAND  1436   82 82  170/  6/  8   N/A
BISHOPS HEAD MD  1436   81 82  150/ 10/ 12 1023.2R
PINEY POINT MD   1436          160/  8/  9   N/A
POTOMAC MD       1500   82 82  150/ 10/ 12 1022.3    1/ 2
CAMBRIDGE MD     1436   81 83              1023.7R
LEWISETTA VA     1436   82 83  190/  6/  8 1022.7S
RAPPAHANNOCK LGT 1436          150/  8/  9 1024.1R
STINGRAY PT      1500   81 82  180/ 12/ 12 1023.6
YORK RVR RNG VA  1436   80     160/  8/  9 1023.7R
YORKTOWN VA      1436   82 83   70/  4/  5 1022.8S
JAMESTOWN VA     1500      85  140/  6/  6   N/A     0
DOMINION TERM VA 1436   82     130/  3/  5 1023.5R
KIPTOPEKE VA     1436      81  180/  6/  7   N/A
CHES BAY BRIDGE  1436   83 80  160/  3/  6 1023.2R
CAPE HENRY VA    1436   80     130/ 10/ 12   N/A
WILLOUBY STN VA  1436   82      70/  4/  5 1023.5R
S CRANEY ISL VA  1436   85     160/  5/  6 1023.1R
CAPE HENRY BUOY  1500      81                N/A     2/ 9
1ST LANDING BUOY 1500   80 81              1023.4    1
64NM E OF VA BCH 1450   79 79  120/ 10/ 12 1024.1R   2/ 9   2/ 9
DUCK PIER NC     1436   81 77  120/  7/  7 1023.3R
44100 DUCK FRF   1405      81                N/A     2/ 8
44056 DUCK FRF   1430      80                N/A     2/ 9
OREGON INLET NC  1436   80 79   50/  5/  7 1023.7R
HATTERAS NC      1436   84 79   90/  6/ 11 1023.4R
DIAMOND SHLS NC  1450   83 84  140/ 10/ 12 1023.0R   2/ 8   2/ 8
CAPE LOOKOUT NC  1500   81      60/  9/ 11 1023.0R
$$



USA.gov is the U.S. government's official web portal to all federal, state and local government web resources and services.